Melitese

Seconda Categoria, Zaccone si aggiudica la classifica marcatori

Si conclude il campionato di Seconda Categoria e, con la manita rifilata alla Cinquefrondese, (nonostante i 7 gol al passivo) il capocannoniere del campionato con i suoi 29 goal stagionali messi a segno è...

Seconda Categoria, le designazioni arbitrali della tredicesima giornata di ritorno

Ecco le designazioni arbitrali relative alle gare della tredicesima giornata di ritorno di Seconda Categoria in programma nel week end: Atletico Melicucco-Villa S.Giovanni City: Marco Amodeo di Reggio Calabria Catona Calcio-Antonimina: Corrado La Russa di Reggio Calabria Cinquefrondese-Polisportiva Melitese: Marco Marra...
video

La Melitese dura solo un tempo, exploit del Gallina [FOTO e VIDEO]

Ultima partita casalinga per la Polisportiva Melitese, davanti ad un pubblico pressoché assente (circa una decina di persone presenti al "Saverio Spinella") vista la festa patronale nel paese. Una Melitese che fa il buono...

Seconda Categoria, le designazioni arbitrali dell’undicesima giornata di ritorno

Ecco le designazioni arbitrali relative alle gare dell'undicesima giornata di ritorno di Seconda Categoria in programma nel week end: Antonimina-Cinquefrondese: Ivan Aliano di Reggio Calabria Campese-Atletico Melicucco: Alessandro Meduri di Reggio Calabria Croce Valanidi-Catona Calcio: Natale Morabito di Reggio Calabria Nuovo Polistena-CS Lazzaro: Marco Amodeo...

Seconda Categoria, le designazioni arbitrali dell’undicesima giornata di ritorno

Ecco le designazioni arbitrali relative alle gare dell'undicesima giornata di ritorno di Seconda Categoria in programma nel week end: Catona Calcio-Varapodio: Paolo Meli di Reggio Calabria Cinquefrondese-Croce Valanidi: Raffaele Trapasso di Vibo Valentia Atletico Melicucco-Nuovo Polistena: Aldo D'auria di Vibo Valentia Audax Ravagnese-Campese: Antonino Comperatore...
DataCasaRisultatiTrasfertaOra
2019-05-05 16:00:0005/05/2019 - 16:007 - 5 16:00:0016:00
2019-04-28 16:00:0028/04/2019 - 16:002 - 3 16:00:0016:00
2019-04-14 16:00:0014/04/2019 - 16:004 - 2 16:00:0016:00
2019-04-06 16:00:0006/04/2019 - 16:001 - 2 16:00:0016:00
2019-03-31 17:30:0031/03/2019 - 17:302 - 4 17:30:0017:30
2019-03-23 15:00:0023/03/2019 - 15:004 - 1 15:00:0015:00
2019-03-16 15:00:0016/03/2019 - 15:003 - 1 15:00:0015:00
2019-03-09 15:00:0009/03/2019 - 15:002 - 1 15:00:0015:00
2019-02-23 14:30:0023/02/2019 - 14:303 - 2 14:30:0014:30
2019-02-17 14:30:0017/02/2019 - 14:303 - 2 14:30:0014:30
2019-02-09 14:30:0009/02/2019 - 14:300 - 2 14:30:0014:30
2019-02-03 14:30:0003/02/2019 - 14:302 - 3 14:30:0014:30
2019-01-26 14:30:0026/01/2019 - 14:301 - 2 14:30:0014:30
2019-01-20 14:30:0020/01/2019 - 14:301 - 1 14:30:0014:30
2019-01-12 14:30:0012/01/2019 - 14:301 - 2 14:30:0014:30
2018-12-16 14:30:0016/12/2018 - 14:303 - 0 14:30:0014:30
2018-12-09 14:30:0009/12/2018 - 14:305 - 3 14:30:0014:30
2018-12-02 14:30:0002/12/2018 - 14:300 - 0 14:30:0014:30
2018-11-25 14:30:0025/11/2018 - 14:305 - 1 14:30:0014:30
2018-11-18 14:30:0018/11/2018 - 14:303 - 2 14:30:0014:30
2018-11-03 14:30:0003/11/2018 - 14:302 - 0 14:30:0014:30
2018-10-28 17:30:0028/10/2018 - 17:301 - 0 17:30:0017:30
2018-10-20 15:30:0020/10/2018 - 15:302 - 1 15:30:0015:30
2018-10-13 15:30:0013/10/2018 - 15:305 - 3 15:30:0015:30
2018-04-29 16:00:0029/04/2018 - 16:007 - 6 16:00:0016:00
2018-04-22 16:00:0022/04/2018 - 16:001 - 2 16:00:0016:00
2018-04-14 16:00:0014/04/2018 - 16:003 - 2 16:00:0016:00
2018-04-08 16:00:0008/04/2018 - 16:002 - 1 16:00:0016:00
2018-03-24 15:00:0024/03/2018 - 15:004 - 0 15:00:0015:00
2018-03-17 15:00:0017/03/2018 - 15:002 - 1 15:00:0015:00
2018-03-10 15:00:0010/03/2018 - 15:001 - 5 15:00:0015:00
2018-03-04 15:00:0004/03/2018 - 15:001 - 0 15:00:0015:00
2018-02-24 14:30:0024/02/2018 - 14:302 - 3 14:30:0014:30
2018-02-17 14:30:0017/02/2018 - 14:302 - 2 14:30:0014:30
2018-02-10 14:30:0010/02/2018 - 14:302 - 2 14:30:0014:30
2018-02-03 14:30:0003/02/2018 - 14:300 - 0 14:30:0014:30
2018-01-27 14:30:0027/01/2018 - 14:302 - 2 14:30:0014:30
2018-01-20 14:30:0020/01/2018 - 14:304 - 1 14:30:0014:30
2018-01-14 14:30:0014/01/2018 - 14:303 - 1 14:30:0014:30
2018-01-06 14:30:0006/01/2018 - 14:303 - 2 14:30:0014:30
2017-12-16 14:30:0016/12/2017 - 14:301 - 4 14:30:0014:30
2017-12-09 14:30:0009/12/2017 - 14:300 - 1 14:30:0014:30
2017-12-02 14:30:0002/12/2017 - 14:302 - 1 14:30:0014:30
2017-11-26 14:30:0026/11/2017 - 14:303 - 0 14:30:0014:30
2017-11-18 14:30:0018/11/2017 - 14:301 - 2 14:30:0014:30
2017-11-12 14:30:0012/11/2017 - 14:302 - 3 14:30:0014:30
2017-11-04 14:30:0004/11/2017 - 14:301 - 1 14:30:0014:30
2017-10-28 15:30:0028/10/2017 - 15:302 - 1 15:30:0015:30
2017-10-21 15:30:0021/10/2017 - 15:303 - 2 15:30:0015:30
2017-10-14 15:30:0014/10/2017 - 15:302 - 1 15:30:0015:30